Location: B�hl
(48.6968°N, 8.1352°E)
Time: 07:42:35
(UTC+00:00)

USA 234 - Pass Details

Date: 08 March 2021
Orbit: 1102 x 1105 km, 123.0° (Epoch: 08 April)

Event Time Altitude Azimuth Distance (km) Brightness Sun altitude
Exits shadow 19:33:11 38° 91° (E) 1,619 3.6 -22.1°
Maximum altitude 19:35:08 49° 135° (SE) 1,396 3.4 -22.4°
Drops below altitude 10° 19:41:25 10° 209° (SSW) 2,954 5.6 -23.4°
Sets 19:44:00 0° 215° (SW) 3,909 6.3 -23.8°
